Weather in Finike

Turkey     36°17′49″N   30°08′45″E
temp.,
°C
wind,
m/s
gust,
m/s
humid.,
%
clouds,
%
prec.,
mm/h
press.,
hPa
HPBL,
m
13 april, tue
tue1300:00+14nw22615 0.0 1020259
03:00+13n21624 0.0 1020204
06:00+13nne21640 0.0 1020206
09:00+14ene11610 0.0 1020276
12:00+15s33611 0.0 1020376
15:00+16ssw55685 0.0 1020634
18:00+16ssw33675 0.0 1019591
21:00+15wnw11665 0.0 1020451
14 april, wed
wed1400:00+14nne327437 0.0 1020210
03:00+14nne227525 0.0 1020174
06:00+14nne227491 0.0 1019168
09:00+15ne11725 0.0 1020273
12:00+16sse447555 0.0 1020615
15:00+16s33708 0.1 1019582
18:00+16ssw3370100 0.0 1019646
21:00+16ssw0170100 0.0 1019500
15 april, thu
thu1500:00+15nne117383 0.0 1018234
03:00+15ne22778 0.0 1018177
06:00+14nne22773 0.0 1017155
09:00+15ene11743 0.0 1018225
12:00+16s337342 0.0 1018335
15:00+17s33666 0.0 1017348
18:00+17ssw33655 0.0 1016394
21:00
16 april, fri
fri1600:00+16ne2169100 0.0 1016149
03:00+15nne2266100 0.0 1015161
06:00+15nne227115 0.0 1015141
09:00+16ne115913 0.0 1016148
12:00+16s33717 0.0 1016246
15:00+17s336878 0.0 1016252
18:00+17ssw11641 0.0 1015167
21:00+17w1170100 0.0 1016140
17 april, sat
sat1700:00+17ne2268100 0.0 1016100
03:00+17ne226497 0.0 1015113
06:00+17ese1163100 0.0 101468
09:00+18e3362100 0.0 1015107
12:00+19ese2357100 0.0 1015116
15:00+18sse4566100 0.0 1015170
18:00+18se3362100 0.0 1015107
21:00+18ese3365100 0.0 101644